Simultaneous Nadir Overpasses (SNOs) Predictions

Prediction of SNOs between LANDSAT-8 and METOP-B Satellite Orbit:

Table of predicted SNOs for the next 14.0 days since TLE Epoch: 4/10/2021
Index Date (LANDSAT-8) Time (LANDSAT-8) Lat,Lon (LANDSAT-8) SZA (LANDSAT-8 ) Date (METOP-B) Time (METOP-B) Lat,Lon (METOP-B) SZA (METOP-B ) Distance(km) Time Diff (sec)
1 04/11/2021 04:50:27 -81.15, -32.78 105.21 04/11/2021 04:50:24 -81.15, -32.77 105.21 0.56 3
2 04/11/2021 05:39:53 81.16, 134.94 74.80 04/11/2021 05:41:04 81.16, 134.98 74.84 0.82 71
3 04/13/2021 23:35:15 81.11,-134.63 73.71 04/13/2021 23:34:06 81.11,-134.74 73.67 1.92 69
4 04/14/2021 00:24:40 -81.15, 33.71 106.20 04/14/2021 00:24:43 -81.15, 33.89 106.18 3.08 3
5 04/16/2021 19:09:28 81.13, -67.84 72.79 04/16/2021 19:08:25 81.13, -67.73 72.77 1.86 63
6 04/16/2021 19:58:55 -81.13, 99.80 107.23 04/16/2021 19:59:05 -81.14, 99.78 107.23 0.62 10
7 04/19/2021 14:43:42 81.13, -1.44 71.82 04/19/2021 14:42:46 81.12, -1.49 71.79 1.01 56
8 04/19/2021 15:33:08 -81.15, 166.58 108.14 04/19/2021 15:33:25 -81.14, 166.41 108.16 3.15 17
9 04/22/2021 10:17:55 81.12, 64.92 70.87 04/22/2021 10:17:05 81.13, 65.11 70.87 3.21 50



Historial Predications of SNOs between LANDSAT-8 and METOP-B
